Voltar ao catálogo

SL-12 DEB

LostHEO
NORAD 27978·DEBRIS·🇷🇺 Russia

Lançado Sep 16, 1988 de Baikonur Cosmodrome

Loading…

Próximas Passagens (próximas 24 horas)

TLE

ObsoletoSource: Space-Track

Época: Mar 1, 2016, 10:55 UTC

1 27978U 88085Y   16061.45531078  .00000032  00000-0  00000+0 0  9993
2 27978  59.5261 236.2488 4277145   0.1834  12.4317  4.20750558199229

Acompanhe SL-12 DEB em tempo real com AllMySat

Download on the App Store